User: anonymous   Login
Location: Unspecified
(0.0000°N, 0.0000°E)
Time: 00:07:43
(UTC+00:00)
Language:

STARLINK-37184 - Orbit

View from above orbital plane
View from above orbital plane
View from above satellite
View from above satellite

Ground track
Ground track

The orbit is defined by the following mean orbital elements,

1 68393U          26145.34390044 +.00000000 +00000-0 +94208-3 0 00003
2 68393  97.2842 287.9168 0001524  90.0906 270.0511 15.33462062    08
Epoch (UTC): 25 May 2026 08:15:12
Eccentricity: 0.0001524
inclination: 97.2842°
perigee height: 464 km
apogee height: 467 km
right ascension of ascending node: 287.9168°
argument of perigee: 90.0906°
revolutions per day: 15.33462062
mean anomaly at epoch: 270.0511°

The dashed part of the orbit path shows where the satellite is in the earth's shadow,  

DLR